Location: ????
(33.1659°N, 35.6604°E)
Time: 19:58:36
(UTC+00:00)

BREEZE-M DEB (TANK) - Pass Details

Date: 20 September 2019
Orbit: 277 x 16849 km, 49.4° (Epoch: 20 October)

Event Time Altitude Azimuth Distance (km) Brightness Sun altitude
Rises 16:16:27 0° 314° (NW) 2,016 6.2 -9.0°
Reaches altitude 10° 16:17:46 10° 317° (NW) 1,350 5.1 -9.2°
Maximum altitude 16:20:14 69° 42° (NE) 590 2.3 -9.7°
Drops below altitude 10° 16:26:59 10° 126° (SE) 3,584 5.9 -11.1°
Enters shadow 16:28:06 - 127° (SE) 4,115 6.2 -11.4°
